[[{"header":{"parameterUnit":"m.s-1","parameterCategory":1,"la1":30.2991,"la2":30.254,"lo1":-89.0895,"lo2":-89.0444,"dy":0.0017,"dx":0.0017,"nx":28,"ny":28,"refTime":"2024-04-25T03:00:00:Z","depth":0,"parameterNumber":2,"parameterNumberName":"U-component_of_WINDS"},"data":[0,0,0,0,0,0,0,0,0,0,0,0,0,0,0,0,0,0,0,0,0,0,0,0,0,0,0,0,0,0,0,0,0,0,0,0,0,0,0,0,0,0,0,0,0,0,0,0,0,0,0,0,0,0,0,0,0,0,0.4369,0.437,0,0.4464,0.4465,0.4466,0.4512,0.4512,0.4512,0.4512,0.4607,0.461,0.4612,0,0,0,0,0,0,0,0,0,0,0,0,0,0.4225,0.4227,0.4369,0.437,0.4371,0.4464,0.4465,0.4466,0.4512,0.4512,0.4512,0.4512,0.4607,0.461,0.4613,0,0,0,0,0,0,0,0,0,0,0,0,0,0.43,0.4228,0.4369,0.4405,0.4409,0.4463,0.4465,0.4466,0.4512,0.4512,0.4512,0.4512,0.4606,0.4609,0.4613,0.4637,0,0,0.4625,0.4627,0,0,0,0,0,0,0,0,0.4296,0.4306,0.4399,0.4403,0.4407,0.4476,0.4449,0.4524,0.4512,0.4473,0.4512,0.4512,0.4564,0.4571,0.4589,0.4642,0.4646,0.4625,0.4628,0.4629,0.463,0,0,0,0,0,0,0,0.4291,0.4302,0.4406,0.44,0.4405,0.4416,0.4427,0.4464,0.4517,0.4476,0.448,0.449,0.4566,0.4585,0.4591,0.4647,0.4625,0.4628,0.4631,0.4632,0.4725,0.4725,0,0,0,0,0,0,0.428,0.4297,0.4403,0.4409,0.4351,0.4419,0.4431,0.4454,0.4517,0.4526,0.449,0.4492,0.4578,0.4587,0.4595,0.4628,0.4629,0.4633,0.4635,0.4725,0.4725,0.4725,0,0,0,0,0,0,0.4277,0.4289,0.44,0.4354,0.4369,0.4421,0.4447,0.4456,0.4475,0.4528,0.4537,0.45,0.4579,0.4589,0.4627,0.4631,0.4634,0.4638,0.4725,0.4725,0.4725,0.4693,0,0,0,0,0,0,0.4272,0.4287,0.4298,0.4354,0.4371,0.443,0.4447,0.4458,0.4481,0.4485,0.4539,0.4548,0.4579,0.462,0.463,0.4637,0.4641,0.4724,0.4725,0.4725,0.4694,0.4692,0.469,0,0,0,0,0,0.4267,0.4285,0.4298,0.4311,0.4385,0.443,0.444,0.4476,0.4482,0.4492,0.4526,0.4546,0.4629,0.4624,0.4635,0.4643,0.4724,0.4725,0.4725,0.4694,0.4692,0.469,0,0,0,0,0,0,0.4227,0.4293,0.4308,0.4345,0.4382,0.4438,0.4453,0.4473,0.4508,0.451,0.4553,0.4565,0.4598,0.4624,0.4617,0.467,0.4679,0.4681,0.4651,0.465,0.4648,0.4641,0.4644,0,0,0,0,0,0.4223,0.4255,0.431,0.4337,0.4354,0.44,0.4421,0.4445,0.4485,0.4501,0.4537,0.4575,0.4609,0.4631,0.4665,0.4697,0.471,0.4708,0.4707,0.4705,0.4707,0.4725,0.4725,0.4726,0.4726,0.4726,0,0,0.4214,0.4254,0.4271,0.433,0.4361,0.4392,0.4413,0.4445,0.4468,0.4506,0.4543,0.4571,0.4615,0.465,0.4667,0.4673,0.4709,0.4705,0.4704,0.4707,0.4726,0.4726,0.4725,0.4727,0.4726,0.4726,0,0,0.4214,0.4247,0.4273,0.4304,0.4352,0.4382,0.4388,0.4441,0.4461,0.4499,0.4528,0.4555,0.4614,0.4644,0.4667,0.4677,0.4697,0.4687,0.4679,0.4697,0.4696,0.4697,0.47,0.4701,0.4689,0.4689,0.4689,0,0.4197,0.4246,0.4284,0.4315,0.4339,0.4374,0.4401,0.4429,0.4484,0.45,0.4506,0.458,0.4612,0.4654,0.4657,0.4674,0.4682,0.4682,0.4693,0.4694,0.4695,0.4699,0.47,0.4687,0.4688,0.4688,0.4688,0,0.4222,0.4256,0.4271,0.4324,0.4351,0.4379,0.442,0.4442,0.4464,0.4493,0.4531,0.4571,0.4614,0.4626,0.4647,0.4671,0.4673,0.4685,0.4695,0.4692,0.4697,0.4699,0.4685,0.4686,0.4686,0.4687,0,0,0.4201,0.4275,0.428,0.4304,0.4359,0.4385,0.4414,0.4456,0.4474,0.4511,0.4536,0.4584,0.4596,0.4622,0.4647,0.4663,0.4668,0.4674,0.4675,0.4671,0.4696,0.4686,0.4687,0.4681,0.4682,0.4682,0.4692,0,0.4209,0.4264,0.4298,0.4339,0.437,0.4403,0.4429,0.4464,0.4492,0.4521,0.4552,0.4585,0.4598,0.4614,0.4631,0.4664,0.4673,0.4663,0.4705,0.4706,0.4693,0.469,0.468,0.4687,0.4694,0.4694,0.4694,0,0.4225,0.4262,0.4306,0.4356,0.437,0.4393,0.4434,0.4462,0.4502,0.4521,0.455,0.4575,0.4607,0.4613,0.4657,0.465,0.4668,0.4687,0.4688,0.4694,0.47,0.4695,0.4691,0.4692,0.4697,0.4697,0.4697,0,0.4205,0.4265,0.4299,0.4319,0.4379,0.4394,0.4419,0.446,0.4483,0.4518,0.4534,0.4572,0.4593,0.4622,0.4657,0.4659,0.4697,0.4707,0.4714,0.4713,0.4721,0.472,0.4719,0.4732,0.4732,0.4732,0.4732,0,0.4211,0.4236,0.4291,0.4312,0.4341,0.438,0.4408,0.4436,0.4472,0.4498,0.4528,0.4552,0.4597,0.4626,0.4653,0.4685,0.4694,0.471,0.4717,0.4708,0.4706,0.4721,0.4721,0.4732,0.4732,0.4732,0.4732,0,0.4194,0.4232,0.4271,0.4324,0.4338,0.4357,0.4402,0.4423,0.4452,0.4485,0.4495,0.454,0.4576,0.4613,0.4662,0.468,0.4711,0.472,0.4697,0.4701,0.4706,0.4705,0.4715,0.4719,0.4729,0.4728,0.4728,0,0.4195,0.4215,0.427,0.429,0.4315,0.4347,0.4371,0.4409,0.4433,0.448,0.4495,0.4533,0.4566,0.4621,0.4658,0.4695,0.4706,0.4707,0.4712,0.4701,0.4706,0.4705,0.4707,0.4706,0.4705,0.4705,0.4705,0,0.4193,0.421,0.4243,0.4283,0.431,0.4343,0.4377,0.4392,0.4437,0.4461,0.4498,0.4523,0.4573,0.461,0.4651,0.4677,0.4698,0.4703,0.4707,0.4697,0.4683,0.4691,0.4693,0.4703,0.4703,0.4703,0.4703,0.4703,0.4185,0.4205,0.4246,0.4282,0.4312,0.4342,0.4365,0.4396,0.4428,0.4472,0.4492,0.4529,0.4568,0.4626,0.4651,0.468,0.4686,0.4691,0.4693,0.4693,0.4691,0.4678,0.4688,0.4688,0.4688,0.4688,0.4688,0,0.4185,0.4213,0.4245,0.4292,0.432,0.4337,0.4376,0.4398,0.443,0.4465,0.4496,0.4538,0.4574,0.4614,0.4652,0.4668,0.4678,0.4676,0.4676,0.4681,0.4683,0.4677,0.4667,0.4667,0.4667,0.4667,0.4667,0.4667,0.4188,0.4222,0.4244,0.4292,0.432,0.4357,0.4377,0.4406,0.4434,0.448,0.451,0.4535,0.4572,0.4613,0.4646,0.4657,0.467,0.4665,0.4678,0.468,0.4681,0.4683,0.4677,0.4667,0.4667,0.4674,0.4674,0.4674]},{"header":{"parameterUnit":"m.s-1","parameterCategory":1,"la1":30.2991,"la2":30.254,"lo1":-89.0895,"lo2":-89.0444,"dy":0.0017,"dx":0.0017,"nx":28,"ny":28,"refTime":"2024-04-25T03:00:00:Z","depth":0,"parameterNumber":3,"parameterNumberName":"V-component_of_WINDS"},"data":[0,0,0,0,0,0,0,0,0,0,0,0,0,0,0,0,0,0,0,0,0,0,0,0,0,0,0,0,0,0,0,0,0,0,0,0,0,0,0,0,0,0,0,0,0,0,0,0,0,0,0,0,0,0,0,0,0,0,3.0938,3.0938,0,3.0912,3.0912,3.0911,3.0846,3.0844,3.0843,3.0841,3.0816,3.0817,3.0817,0,0,0,0,0,0,0,0,0,0,0,0,0,3.0931,3.0931,3.0938,3.0938,3.0937,3.0912,3.0912,3.0911,3.0846,3.0844,3.0842,3.0841,3.0816,3.0817,3.0817,0,0,0,0,0,0,0,0,0,0,0,0,0,3.0922,3.0931,3.0938,3.0901,3.0898,3.0912,3.0912,3.0911,3.0846,3.0844,3.0842,3.084,3.0816,3.0817,3.0817,3.0865,0,0,3.082,3.0821,0,0,0,0,0,0,0,0,3.0923,3.0923,3.0907,3.0904,3.09,3.088,3.09,3.0896,3.0847,3.0866,3.0841,3.0839,3.0839,3.0838,3.0838,3.0864,3.0863,3.082,3.0821,3.0821,3.0822,0,0,0,0,0,0,0,3.0924,3.0923,3.0928,3.0907,3.0903,3.0886,3.0883,3.0899,3.0865,3.0864,3.0859,3.0857,3.0837,3.0837,3.0837,3.0863,3.082,3.0821,3.0822,3.0822,3.0926,3.0928,0,0,0,0,0,0,3.0929,3.0924,3.0928,3.0927,3.0906,3.0888,3.0884,3.0888,3.0864,3.0858,3.0859,3.0854,3.0836,3.0836,3.0836,3.0889,3.0821,3.0822,3.0823,3.0924,3.0926,3.0929,0,0,0,0,0,0,3.0929,3.093,3.0929,3.0924,3.0923,3.0891,3.0896,3.0889,3.0889,3.086,3.0854,3.0865,3.0835,3.0834,3.0858,3.0887,3.0823,3.0824,3.0921,3.0925,3.0928,3.0997,0,0,0,0,0,0,3.0929,3.0931,3.0949,3.0925,3.0923,3.0953,3.0898,3.089,3.0891,3.0884,3.0865,3.0859,3.0833,3.0857,3.0859,3.0887,3.0824,3.0918,3.0923,3.0927,3.0992,3.1002,3.1011,0,0,0,0,0,3.0929,3.097,3.095,3.0951,3.0945,3.0954,3.0953,3.0922,3.0894,3.0911,3.0892,3.086,3.0884,3.086,3.0862,3.0891,3.0916,3.0921,3.0926,3.0988,3.1,3.1011,0,0,0,0,0,0,3.0998,3.0966,3.0944,3.0977,3.0969,3.0943,3.0964,3.0936,3.0936,3.093,3.0892,3.0888,3.0917,3.0906,3.088,3.0935,3.0895,3.09,3.0941,3.0953,3.0962,3.0963,3.0825,0,0,0,0,0,3.1017,3.1027,3.0998,3.1031,3.1028,3.0997,3.1,3.0976,3.0966,3.0963,3.0946,3.0938,3.0943,3.0947,3.0951,3.099,3.0985,3.1011,3.1021,3.1029,3.1034,3.1053,3.1064,3.0945,3.0945,3.0945,0,0,3.1056,3.104,3.1049,3.1044,3.1035,3.1046,3.0995,3.1009,3.1017,3.0965,3.0986,3.0973,3.0962,3.0993,3.1006,3.0985,3.1065,3.1035,3.1042,3.1042,3.1059,3.107,3.108,3.0948,3.0948,3.0947,0,0,3.1133,3.1122,3.1147,3.1139,3.1125,3.1105,3.1111,3.1089,3.1079,3.1099,3.106,3.1069,3.108,3.1073,3.107,3.1144,3.1114,3.1147,3.1196,3.1215,3.1225,3.1233,3.1258,3.1268,3.1152,3.1152,3.1152,0,3.1183,3.1198,3.1164,3.118,3.1179,3.1133,3.1158,3.1151,3.114,3.1141,3.1117,3.1129,3.1118,3.1146,3.1164,3.1165,3.117,3.1148,3.1226,3.1234,3.1241,3.1265,3.1274,3.1156,3.1156,3.1155,3.1155,0,3.126,3.1272,3.1294,3.1283,3.1285,3.1306,3.1274,3.128,3.1257,3.1238,3.1259,3.1244,3.1244,3.1249,3.1226,3.1274,3.1262,3.1233,3.1191,3.1257,3.1278,3.1287,3.1162,3.116,3.1159,3.1158,0,0,3.1379,3.1349,3.1358,3.1352,3.1333,3.1341,3.136,3.1359,3.1364,3.1358,3.1372,3.1382,3.1355,3.1353,3.1329,3.1346,3.1404,3.1315,3.1314,3.1331,3.1455,3.1476,3.1487,3.1384,3.1386,3.1387,3.1455,0,3.1451,3.148,3.145,3.1485,3.1495,3.145,3.1467,3.1457,3.1441,3.1446,3.1428,3.1435,3.14,3.1398,3.1412,3.1394,3.1428,3.1389,3.1396,3.1397,3.14,3.1498,3.152,3.1585,3.1464,3.1465,3.1466,0,3.1538,3.1535,3.1572,3.155,3.1553,3.1568,3.1563,3.157,3.1558,3.1545,3.1542,3.1513,3.1529,3.149,3.1512,3.1485,3.1487,3.1478,3.148,3.1479,3.1435,3.1498,3.1605,3.1615,3.1479,3.1478,3.1477,0,3.1619,3.1625,3.1647,3.1644,3.1619,3.1631,3.1621,3.1607,3.1608,3.1605,3.1605,3.1604,3.1604,3.1603,3.1575,3.1549,3.16,3.1558,3.1589,3.159,3.1601,3.1601,3.1709,3.1604,3.1604,3.1604,3.1604,0,3.1702,3.1726,3.1683,3.1697,3.1722,3.1687,3.1713,3.1699,3.1687,3.1697,3.1659,3.1669,3.1631,3.1638,3.1616,3.1637,3.1637,3.1626,3.162,3.1629,3.163,3.1629,3.1623,3.1606,3.1606,3.1605,3.1605,0,3.1797,3.1769,3.179,3.1765,3.176,3.1779,3.1758,3.177,3.175,3.1764,3.1765,3.1735,3.174,3.1712,3.1713,3.1698,3.1729,3.1716,3.1733,3.1728,3.176,3.1757,3.1871,3.1883,3.1772,3.1773,3.1774,0,3.185,3.1867,3.1844,3.1848,3.184,3.1847,3.1847,3.1814,3.1816,3.1803,3.1816,3.1818,3.1818,3.1829,3.1807,3.1807,3.1793,3.1832,3.1792,3.1801,3.1792,3.1791,3.1792,3.1841,3.1842,3.1843,3.1844,0,3.1948,3.1934,3.1936,3.1933,3.1935,3.1931,3.1925,3.193,3.1893,3.1898,3.1902,3.1902,3.1902,3.1905,3.19,3.189,3.1861,3.1857,3.1864,3.1873,3.1881,3.1876,3.1754,3.1854,3.1853,3.1852,3.1852,3.1851,3.2023,3.2036,3.2022,3.2025,3.2017,3.2012,3.2021,3.2003,3.2006,3.2003,3.1983,3.1991,3.1978,3.1969,3.1962,3.1968,3.1949,3.196,3.1962,3.1965,3.197,3.1881,3.1967,3.1967,3.1967,3.1966,3.1966,0,3.2118,3.2107,3.211,3.2102,3.2105,3.2077,3.2069,3.2073,3.208,3.2071,3.2071,3.2076,3.2078,3.2057,3.2056,3.2064,3.2051,3.2065,3.2064,3.2062,3.1987,3.1981,3.2076,3.2076,3.2076,3.2076,3.2076,3.2076,3.2168,3.2188,3.2172,3.2187,3.2175,3.2182,3.218,3.2175,3.2167,3.2174,3.2175,3.2161,3.2146,3.2144,3.2145,3.2138,3.2139,3.2158,3.2147,3.2078,3.2067,3.2057,3.2051,3.2159,3.2159,3.2221,3.2221,3.2222]}]]